Theta_e
302 302 302 302 302 302 303 304 304 304 304 304 304 308 304 302 301 311 316 318 310 302 296 298 296 296 298 300 299 298 297 296 299 296 296 294 298 297 294 295 295 296 296 297 296 296 294 295 294 298 298 299 301 305 306 306 304 303 305 302 304 304 295 292 293 298 300 301 303 303 303 302 299 300 301 300 297 297 295 294 294 291 293 290 289 285 290
301 302 302 302 302 303 303 304 304 305 304 302 304 303 304 305 305 306 315 317 313 305 291 292 294 296 299 299 298 299 298 296 296 296 296 296 296 294 294 296 297 296 298 297 294 297 289 295 295 297 299 298 305 307 305 305 304 301 300 298 306 293 297 294 289 289 291 293 297 298 301 301 298 297 299 301 301 301 300 299 299 289 291 291 287 283 288
301 302 302 302 303 303 303 304 304 305 304 305 303 301 307 304 307 307 309 313 312 299 301 298 292 296 297 296 295 296 297 299 299 299 297 298 299 297 296 297 298 295 298 296 297 297 294 293 297 299 299 298 303 304 304 306 303 306 305 307 306 296 295 293 286 284 281 281 283 285 289 294 298 299 299 301 299 298 297 291 291 286 291 293 288 287 295
302 302 302 302 302 302 303 304 304 305 304 303 302 301 304 302 291 302 305 307 306 305 307 303 299 296 298 292 296 297 294 297 299 300 297 299 299 298 298 299 298 296 296 294 293 294 297 294 294 295 296 298 301 304 305 305 304 306 308 308 306 297 299 296 293 290 287 288 289 297 296 296 293 296 297 297 300 301 300 297 291 287 290 289 293 294 294
302 302 302 302 302 302 303 304 304 304 304 304 303 304 304 305 295 297 294 303 303 302 303 301 301 295 300 290 296 295 296 296 296 298 295 298 297 297 298 297 295 294 294 293 294 295 294 296 294 294 296 297 300 302 304 304 306 306 304 306 302 299 291 296 297 296 295 296 295 297 296 294 295 294 295 297 298 299 297 291 289 296 291 286 294 296 294
302 301 301 302 302 302 303 304 304 304 305 304 304 302 306 296 300 303 305 297 293 295 295 301 300 300 299 296 298 295 294 294 292 295 298 299 299 296 296 295 295 295 294 295 290 294 293 294 291 295 296 295 299 297 302 299 305 307 303 306 301 297 291 297 298 297 297 297 296 297 296 295 296 296 296 296 298 298 294 293 296 295 290 288 294 295 294
301 301 301 301 302 302 303 303 304 304 304 304 304 302 308 306 303 306 308 298 300 300 300 301 299 298 297 296 296 294 294 294 296 295 294 296 295 297 289 292 295 295 296 295 292 293 289 289 297 295 296 296 296 295 297 300 302 302 304 302 304 299 293 295 297 295 296 297 296 297 295 296 295 295 297 297 298 296 297 296 297 297 294 296 296 296 294
301 300 301 301 301 302 303 303 304 304 303 305 304 305 303 301 299 299 304 307 301 301 300 300 299 296 296 291 295 295 295 294 296 297 296 292 295 298 295 294 296 296 296 295 293 295 296 296 291 297 296 296 296 295 296 295 300 301 300 300 304 296 290 297 296 293 293 296 296 297 296 294 293 295 296 297 297 296 296 295 295 297 296 297 293 296 293
300 300 300 301 301 302 303 303 304 304 304 306 305 307 310 309 310 307 301 298 299 300 300 297 297 292 294 294 295 296 296 295 296 296 299 296 295 296 295 296 297 297 296 296 295 298 299 297 298 299 297 292 298 294 298 299 296 297 297 299 301 299 292 297 295 288 289 295 295 296 295 294 291 291 293 294 294 292 293 291 294 293 292 295 295 293 291
300 300 300 301 301 302 302 303 304 304 303 305 309 304 313 310 311 310 304 296 297 296 299 298 296 290 296 297 295 295 296 298 296 291 296 298 299 298 297 298 296 295 295 295 297 298 299 299 299 299 299 300 299 299 299 298 296 296 296 300 295 297 294 290 290 287 287 293 295 295 294 291 287 285 290 292 294 294 295 294 295 294 295 292 288 290 296
300 300 300 301 301 302 302 303 304 304 304 304 306 307 310 309 306 308 304 294 293 297 296 295 295 295 297 297 296 297 297 297 297 291 289 297 297 298 299 298 295 295 296 297 301 302 302 301 301 301 300 299 298 298 299 298 298 296 296 296 297 297 295 291 294 286 286 290 293 294 289 282 282 291 295 295 292 293 290 289 292 294 295 293 297 294 295
300 300 300 301 301 302 302 303 303 304 303 305 307 306 311 313 310 307 300 292 292 298 296 293 296 296 295 296 296 294 294 295 295 299 294 296 298 300 298 298 296 289 298 303 302 301 302 302 301 300 299 298 298 298 298 297 297 299 299 296 294 294 293 291 294 288 286 291 290 284 280 283 291 295 295 296 297 295 291 292 293 293 294 294 294 294 294
300 300 300 301 301 302 302 303 303 304 305 306 306 305 313 316 309 305 302 297 292 296 293 295 297 297 297 297 296 297 297 297 298 299 298 298 297 297 298 298 296 296 301 301 300 299 295 294 295 296 296 297 297 297 296 296 296 298 300 300 296 291 291 291 290 290 290 287 287 278 280 289 293 293 294 296 297 295 294 289 291 292 293 293 292 293 294
300 300 300 301 301 302 302 303 303 304 304 305 305 307 312 314 308 306 303 297 293 298 298 296 296 296 296 296 296 296 295 296 298 297 296 298 297 298 298 298 300 302 302 302 298 297 294 294 289 290 291 292 292 291 296 298 298 298 298 298 299 297 294 291 288 292 284 286 285 284 289 288 289 289 290 291 288 289 289 284 286 292 293 293 292 293 293
299 300 301 301 301 302 303 303 304 304 305 305 306 308 312 315 313 310 310 302 294 296 299 291 295 296 298 296 296 295 295 295 294 293 296 300 297 299 300 300 302 302 302 299 297 297 292 290 286 285 287 286 282 284 293 290 296 299 299 298 298 297 292 294 289 287 290 286 283 283 282 280 283 289 294 296 296 294 294 290 286 292 293 294 293 292 292
300 300 301 301 302 302 303 303 304 304 305 305 307 310 314 315 312 310 307 300 297 290 296 300 300 298 296 295 296 295 294 293 293 296 295 295 296 298 300 300 302 303 300 298 298 294 292 288 285 285 283 284 282 285 285 292 290 296 298 297 297 297 297 292 290 286 287 286 283 281 280 281 286 288 293 295 296 296 295 289 283 290 293 294 294 292 292
300 300 301 301 302 302 303 304 304 305 306 305 305 309 312 313 311 308 307 305 299 292 299 300 300 297 296 293 293 294 296 293 295 290 290 293 295 297 298 300 304 301 299 299 298 293 290 288 289 286 287 290 285 285 289 288 286 288 293 295 294 290 291 291 288 286 286 285 284 279 282 281 286 290 293 295 296 297 292 282 281 289 293 294 293 292 291
300 300 301 301 302 302 303 304 305 306 306 306 306 308 311 316 316 311 307 306 295 295 298 301 299 297 295 296 296 296 297 295 296 298 294 295 295 294 296 298 297 300 302 295 296 290 288 288 286 285 284 291 290 290 282 286 284 285 286 287 287 288 288 289 285 287 286 285 283 284 283 287 290 291 293 296 296 293 283 278 282 291 292 292 292 290 289
300 300 301 301 302 303 304 304 305 306 306 306 307 311 312 311 313 314 309 306 298 291 297 300 301 299 301 300 297 297 296 300 298 292 290 291 294 297 298 299 301 293 298 294 295 289 288 288 293 291 287 288 292 284 289 285 284 288 287 286 286 287 287 288 288 286 286 287 284 282 284 287 292 293 295 296 292 281 280 287 293 292 291 292 291 289 288
300 301 301 302 302 303 304 305 305 306 307 307 307 309 308 311 314 314 308 301 298 296 298 299 300 298 302 300 297 297 297 299 298 296 294 290 298 298 296 292 298 300 296 299 290 294 288 286 289 292 288 288 289 292 287 287 291 287 286 288 286 285 284 283 283 287 287 286 283 281 277 286 293 294 293 294 286 285 291 291 291 292 291 290 289 289 289
300 301 301 302 303 304 304 305 306 306 307 306 305 310 304 312 317 317 320 310 299 293 295 302 301 300 301 300 301 299 298 296 298 296 299 299 302 299 288 289 295 296 291 293 287 288 290 288 291 289 292 291 289 291 284 285 288 293 291 289 287 291 285 285 284 286 281 281 278 278 284 288 295 293 286 290 292 295 295 293 289 292 291 290 289 290 291
300 301 301 302 303 304 305 305 306 307 307 307 306 312 305 309 313 311 309 308 300 296 298 301 302 301 302 303 303 303 301 301 302 303 300 297 303 300 298 300 299 300 299 300 296 291 297 294 296 290 288 289 294 287 290 285 283 289 294 292 282 290 286 288 283 287 284 281 284 288 292 294 296 295 294 294 295 296 295 293 292 290 290 292 291 290 292
300 301 301 302 303 304 305 306 306 307 307 307 308 313 302 305 307 312 312 302 303 302 304 302 302 302 302 302 304 304 304 305 306 306 307 303 297 302 300 300 298 303 303 303 296 294 296 295 290 294 291 291 289 287 289 288 285 289 285 292 290 294 294 295 291 287 292 293 293 295 295 294 295 296 296 295 295 296 295 294 292 292 293 293 292 293 293
300 301 302 302 303 304 305 306 306 307 306 307 307 313 305 306 307 308 303 302 299 296 299 303 298 293 297 297 301 304 304 304 305 308 311 310 297 295 302 304 307 304 302 304 305 298 297 295 295 297 288 292 294 287 285 284 286 290 289 287 291 294 296 293 288 291 288 282 293 292 292 294 295 295 296 297 297 295 296 294 294 293 294 294 294 294 293
300 301 301 302 303 304 305 306 306 307 306 306 308 313 310 309 311 308 303 294 296 295 289 292 295 298 300 302 304 303 303 305 307 307 308 309 306 300 297 304 307 304 299 303 306 301 296 292 293 292 287 293 295 286 292 288 287 293 286 288 290 288 296 290 290 289 286 285 290 292 294 295 295 295 294 294 295 295 296 295 295 295 295 295 295 295 294
300 301 301 302 303 304 305 306 306 306 305 306 307 313 307 308 313 314 308 306 303 298 290 289 294 302 302 301 299 301 305 305 304 305 306 306 308 309 306 306 306 309 307 305 305 298 294 293 292 291 290 289 298 290 289 292 290 293 289 288 293 293 295 286 290 287 289 291 292 293 293 293 294 295 296 296 296 295 296 296 296 296 295 295 296 296 295
300 301 301 302 303 304 305 305 306 305 305 306 308 314 308 309 314 310 307 305 297 291 293 289 294 298 300 299 301 303 303 304 305 304 304 305 306 308 308 306 303 302 302 301 302 297 296 294 293 290 293 291 296 294 294 292 292 289 289 292 295 292 287 291 289 285 285 286 288 292 286 286 291 294 295 296 297 296 296 297 296 296 295 295 295 295 297
300 301 301 302 303 304 305 306 306 305 305 305 310 310 312 309 309 310 312 311 306 293 292 291 293 296 302 298 301 302 303 304 304 303 302 303 305 306 306 304 305 302 300 298 293 293 293 291 291 292 293 296 293 290 296 295 295 291 291 291 295 292 292 291 287 286 285 291 293 294 293 292 293 294 296 297 297 297 296 295 295 296 296 296 295 294 295
300 301 301 302 303 304 305 305 306 305 305 305 313 309 308 311 311 311 311 312 311 301 296 296 299 299 291 296 302 301 303 304 304 303 302 302 302 303 303 303 302 300 300 297 295 294 293 293 295 294 294 297 295 289 292 287 287 285 289 294 295 296 297 295 293 293 293 295 294 295 294 291 293 295 295 296 297 297 296 297 297 297 297 297 297 296 295
299 301 301 302 303 304 305 305 305 305 304 310 311 305 298 300 309 311 313 311 311 309 294 292 289 291 302 300 299 301 301 303 303 304 303 302 303 303 302 303 302 302 300 295 294 291 293 293 293 299 300 303 294 291 288 288 287 288 294 295 296 296 296 297 297 294 292 296 296 296 295 295 296 296 295 296 297 297 295 295 296 296 297 298 297 297 298
300 301 302 302 303 304 304 305 306 305 305 312 307 296 293 291 301 310 309 312 314 309 296 295 292 296 295 300 301 298 300 301 302 302 302 303 302 302 302 303 302 299 294 294 293 293 293 290 292 293 298 297 294 291 289 288 285 288 292 295 295 295 295 295 296 297 297 296 297 297 296 296 296 296 295 296 296 296 295 296 296 297 297 297 296 297 297
300 301 301 302 303 304 304 305 306 305 310 306 302 300 303 306 309 307 310 312 312 306 294 290 289 290 290 294 299 302 301 301 302 302 301 303 300 303 302 301 297 301 296 293 294 294 293 293 292 293 294 297 294 290 291 288 285 287 293 294 295 296 296 296 296 296 297 297 296 294 293 294 296 294 292 296 296 297 296 296 296 297 297 296 296 297 297
300 301 301 302 303 304 305 305 305 305 308 305 303 303 305 303 304 307 309 314 309 301 302 293 288 289 289 292 299 301 302 301 300 301 298 303 299 301 297 301 299 298 302 296 292 290 295 293 292 291 295 299 291 290 289 287 289 293 294 294 295 295 295 296 296 297 297 297 297 293 291 292 294 296 296 297 296 296 296 296 296 296 296 295 295 295 296
300 301 301 302 303 304 305 304 304 304 305 306 308 305 309 304 308 306 316 314 306 304 299 292 288 289 288 297 294 298 301 297 295 299 292 302 302 300 295 299 299 293 296 293 294 294 294 292 291 290 294 291 291 289 285 289 293 293 294 295 295 295 296 296 296 295 296 297 297 296 296 296 297 297 296 296 295 296 297 297 296 295 294 295 295 295 295
300 301 301 302 303 304 303 304 308 308 305 305 305 308 310 303 303 306 314 309 295 292 293 292 293 288 288 289 288 294 302 299 292 297 293 297 303 297 297 292 293 291 291 301 293 292 290 291 295 290 287 293 289 285 287 290 291 293 293 293 294 295 295 294 294 295 296 297 296 296 297 296 296 294 294 295 295 296 295 295 296 295 294 294 294 295 295
300 301 302 303 302 304 306 307 306 306 301 302 303 307 302 306 308 321 313 315 307 296 291 290 292 290 290 287 286 291 301 296 298 298 297 295 297 300 298 293 289 293 299 294 290 294 290 295 292 286 291 287 285 288 290 293 292 293 294 294 295 295 295 294 294 295 296 297 297 297 297 296 295 294 295 295 295 295 295 295 295 295 295 294 294 295 295
300 301 302 303 305 304 302 300 304 305 305 308 310 305 302 308 311 309 310 306 310 306 297 291 291 292 294 289 291 292 298 288 296 293 294 293 291 294 294 291 288 291 291 290 290 289 292 300 291 287 287 286 288 294 294 295 294 294 294 295 296 296 295 296 296 296 295 295 295 295 295 295 295 295 295 295 295 295 295 294 295 294 294 294 294 294 295
301 301 303 303 304 296 295 297 304 311 306 303 302 303 302 303 294 296 296 294 299 301 296 298 291 295 297 293 288 297 297 291 297 290 291 294 290 290 293 290 289 290 286 288 291 298 293 291 289 287 287 293 295 295 295 295 296 296 295 296 296 296 296 296 296 295 293 292 291 291 293 294 293 294 294 294 295 295 295 295 295 295 295 295 295 296 295
301 304 304 306 300 293 293 302 311 301 312 305 306 298 293 297 294 290 291 293 294 292 295 295 292 297 295 292 293 300 299 291 291 292 288 294 290 286 291 286 289 290 287 287 289 298 287 288 288 287 286 290 291 293 295 296 296 296 297 296 296 296 296 296 297 296 295 293 294 295 294 293 293 294 295 294 295 295 295 295 296 296 296 296 296 296 296
304 302 298 299 296 298 302 305 301 304 304 297 298 295 289 293 290 286 293 289 289 291 294 290 297 296 297 293 291 292 301 297 289 288 289 291 297 288 290 289 290 288 282 284 287 296 287 283 286 286 284 289 291 294 295 295 295 295 296 297 297 297 297 297 297 298 297 297 296 296 296 296 296 295 295 295 295 294 295 295 296 296 296 296 296 295 296
304 304 300 296 300 302 301 303 305 304 298 293 291 291 290 287 292 291 289 288 288 289 296 295 296 296 297 297 295 291 299 303 300 299 292 288 295 295 288 285 290 286 284 284 289 291 288 286 285 285 286 290 291 294 295 295 295 296 297 297 297 297 297 297 297 296 297 296 296 297 297 296 296 296 296 296 296 295 295 295 295 296 296 296 296 296 297
302 300 302 307 304 303 302 301 299 294 292 293 288 285 288 288 291 290 290 286 286 290 293 296 291 294 293 297 296 297 295 301 296 292 291 286 291 290 287 288 289 285 282 287 291 290 288 283 284 285 289 292 294 295 295 294 295 295 296 297 297 297 297 296 296 296 296 296 296 296 297 296 297 296 296 296 296 296 296 295 295 296 296 297 297 297 298
301 303 303 303 299 296 296 291 293 292 285 285 284 283 287 284 286 286 287 291 293 293 294 301 298 299 300 301 296 299 295 301 293 291 289 287 291 291 287 286 285 283 286 291 288 286 284 283 284 286 292 293 294 294 295 295 295 296 296 297 297 298 298 297 297 296 297 297 296 296 296 296 297 297 297 296 296 296 296 296 296 296 296 297 297 298 297
307 304 299 295 292 292 293 283 292 288 285 286 284 279 283 283 285 288 286 289 292 292 296 295 294 295 289 297 294 291 292 295 295 293 290 291 289 286 285 283 284 289 293 287 286 283 284 287 288 290 292 293 294 295 295 295 296 295 296 296 297 297 297 297 296 297 296 297 297 297 297 297 297 297 297 297 296 296 295 296 297 297 297 297 297 297 298
297 294 292 290 287 290 288 280 290 286 281 284 286 285 285 283 286 289 289 293 295 294 296 298 295 295 291 295 294 294 293 289 293 289 285 288 286 286 284 284 288 288 285 283 285 285 285 284 290 292 292 292 294 295 296 296 296 295 295 296 296 296 296 297 296 296 296 296 296 296 296 296 296 296 297 297 297 297 297 296 297 297 298 297 298 298 299
292 290 289 283 278 285 287 283 284 283 287 288 287 290 289 291 292 292 296 297 296 296 295 295 296 295 292 294 291 289 292 292 288 288 289 289 284 283 288 291 289 284 284 284 282 282 283 287 290 291 293 294 294 295 296 296 297 297 296 294 295 296 296 296 296 296 296 296 296 296 296 296 296 296 296 297 297 297 297 298 298 298 298 298 297 297 298
292 292 291 288 283 286 289 284 284 287 290 291 293 294 295 295 296 297 297 299 296 297 298 298 297 295 292 291 291 291 292 292 287 289 290 285 284 286 290 286 282 283 280 280 282 284 286 290 291 293 294 295 295 295 296 296 296 296 295 296 296 296 296 296 296 296 296 296 296 296 296 296 296 297 297 296 297 298 297 297 298 298 298 297 298 298 298
288 291 291 283 281 286 284 287 292 293 295 295 296 297 297 298 296 295 297 299 299 299 297 296 293 293 292 295 295 290 290 290 287 287 290 287 288 285 283 283 282 284 285 283 284 287 290 292 293 293 295 296 295 295 295 295 296 296 296 296 296 296 296 296 296 296 297 296 296 296 296 296 296 296 296 296 296 297 298 298 298 299 299 299 298 298 297
293 290 287 286 287 288 288 292 293 291 294 296 296 297 296 296 294 296 299 300 298 297 298 297 292 292 288 291 290 288 286 289 284 284 288 286 282 278 280 278 280 280 285 288 288 290 291 294 295 295 296 295 295 296 295 295 296 296 296 296 296 296 296 296 296 296 297 297 297 296 296 296 296 296 296 296 296 296 298 299 299 298 298 298 297 297 297
290 289 290 289 288 289 292 294 292 289 293 294 295 294 296 295 295 296 299 298 299 297 297 294 294 291 289 289 286 287 286 288 287 286 285 282 283 283 283 280 282 283 285 288 290 291 295 295 295 295 295 295 295 295 295 296 295 295 297 297 297 296 296 296 296 297 297 297 297 297 296 295 295 296 296 296 296 297 298 297 298 297 298 298 298 298 297
293 291 290 294 289 288 291 287 288 289 290 291 293 294 296 295 295 295 300 299 298 294 292 289 290 290 288 286 285 282 284 290 286 284 284 283 286 285 283 281 284 287 290 293 294 294 295 295 295 294 295 295 295 296 296 296 295 296 297 297 297 297 296 297 297 297 297 297 297 293 296 296 296 297 297 297 297 296 297 296 297 297 297 298 298 298 298
289 287 288 292 295 295 294 294 295 294 294 295 295 296 297 295 297 298 301 299 295 291 289 291 289 287 285 283 285 288 289 287 285 285 284 286 288 285 284 286 288 292 293 293 294 295 294 296 296 296 295 294 295 295 296 296 297 296 296 296 296 296 296 296 296 297 296 296 297 296 297 297 297 297 296 296 296 295 294 295 296 297 297 298 298 299 299
Wind_Speed
11 11 11 11 11 11 13 14 15 14 15 9 7 7 6 6 3 3 10 8 10 7 6 6 6 9 2 6 6 3 4 5 3 3 5 6 4 2 5 3 5 3 7 5 4 2 4 6 4 7 5 7 6 6 10 8 5 7 4 5 6 5 2 6 8 7 5 10 8 5 8 10 9 7 8 7 7 8 6 6 9 7 2 3 1 1 1
10 11 11 11 11 11 13 13 15 14 9 7 7 6 4 2 4 6 7 7 7 4 4 5 7 6 1 7 1 5 2 8 6 7 9 4 7 4 4 2 3 7 1 4 7 6 1 1 1 8 7 4 1 6 4 3 7 4 3 3 2 3 2 4 4 4 6 9 7 7 6 3 2 4 6 8 8 11 7 6 7 5 5 1 5 0 0
11 11 11 11 11 12 13 13 14 12 9 7 4 3 2 3 4 6 8 7 4 4 4 7 3 4 4 5 4 7 4 5 5 11 4 6 3 3 4 4 4 6 4 6 6 5 2 2 3 9 5 5 9 6 1 9 2 3 2 2 1 2 1 1 3 6 4 3 2 2 3 3 6 4 6 6 11 13 8 2 5 0 9 13 3 5 2
11 11 11 10 12 12 12 12 12 10 9 5 4 3 3 3 2 8 7 7 7 8 8 9 5 3 4 2 6 5 4 4 5 6 2 5 9 4 8 7 3 7 4 3 5 6 4 4 2 3 1 3 2 5 4 10 4 3 4 4 2 1 3 1 3 3 1 1 3 6 5 4 4 5 5 7 8 5 4 2 1 1 3 2 5 3 9
11 10 10 11 12 13 13 13 12 8 9 8 3 4 3 2 4 5 6 6 7 6 9 7 2 5 6 3 4 6 5 1 7 2 4 5 6 5 6 8 4 4 5 5 6 6 11 12 2 5 7 9 2 2 2 10 8 5 4 3 4 4 3 6 7 5 7 6 4 4 7 6 5 7 6 7 6 7 8 4 3 8 3 2 4 1 0
11 10 11 11 12 13 13 12 12 10 7 10 3 4 4 2 5 6 5 4 5 5 6 7 5 7 8 1 0 4 7 4 4 4 4 4 1 5 5 5 2 3 7 5 2 6 8 7 1 1 4 2 7 2 4 2 7 8 3 2 3 4 3 3 2 5 6 6 2 3 6 6 3 3 3 3 4 8 7 7 6 3 2 1 3 2 5
10 10 11 11 12 13 13 14 13 11 9 5 5 4 4 2 4 2 4 1 5 4 5 2 4 7 2 4 4 4 1 4 4 3 1 4 8 6 1 8 7 5 5 5 4 4 5 4 9 7 6 7 7 2 7 7 9 2 6 3 1 1 3 4 4 6 6 4 5 1 8 7 4 5 8 7 8 7 5 6 6 6 6 4 5 8 8
10 10 11 12 13 13 14 14 13 12 13 8 6 6 3 1 5 4 4 4 3 5 5 5 4 4 3 3 3 1 5 4 5 4 1 3 2 1 6 4 4 3 4 2 2 5 7 2 3 7 6 4 3 5 3 1 4 6 3 3 4 1 1 4 4 5 7 3 1 3 2 11 4 11 8 10 9 11 11 11 12 8 7 5 1 4 8
10 11 11 12 13 14 14 15 14 13 12 4 5 3 3 5 6 6 2 4 4 3 4 4 4 4 3 2 5 4 6 5 3 2 7 7 3 3 3 3 7 4 4 1 2 1 5 1 2 4 3 3 1 1 2 3 3 3 2 2 2 1 3 4 4 2 5 3 5 4 6 5 12 12 13 12 12 11 9 8 7 8 8 9 4 3 3
10 11 11 12 13 14 15 15 16 14 12 5 4 4 3 8 9 5 4 2 2 3 5 5 5 3 3 2 6 2 4 4 3 5 7 9 7 9 10 9 6 3 7 4 5 10 3 6 9 6 5 5 6 4 5 4 4 1 2 3 3 2 2 1 2 3 0 4 3 4 7 1 1 8 9 9 10 7 10 10 11 10 8 5 4 4 5
11 11 12 12 13 14 14 15 14 12 10 6 6 5 5 4 6 5 4 1 2 5 3 4 2 7 6 5 4 1 5 4 5 2 1 6 3 3 4 2 2 3 6 8 8 3 6 5 7 6 8 8 7 6 5 7 6 6 5 1 1 2 1 0 2 1 1 4 4 2 1 3 1 1 7 7 8 9 10 11 11 11 9 6 7 8 9
11 11 12 13 13 14 14 14 14 11 8 7 7 8 8 7 6 6 4 1 3 1 2 6 5 4 4 5 4 4 4 5 4 5 3 2 9 4 3 6 3 1 5 5 4 5 7 8 9 8 8 8 8 8 7 5 5 3 3 5 5 3 3 1 0 2 1 3 4 3 3 1 6 6 9 9 6 10 11 12 12 11 12 10 10 10 10
11 12 13 13 14 14 14 14 14 13 9 8 6 8 8 8 6 6 5 5 3 3 2 4 5 5 6 5 3 4 4 10 7 2 3 6 2 6 3 6 2 6 3 4 4 6 7 6 6 7 8 7 8 8 9 8 6 3 3 6 4 2 1 2 2 2 1 1 2 2 2 5 6 7 11 12 5 7 7 12 12 12 11 9 7 8 8
11 12 13 13 14 14 15 15 14 13 11 8 7 8 8 9 4 4 4 4 0 7 3 6 4 7 5 3 3 5 5 2 5 1 3 3 4 4 9 3 7 3 2 2 6 5 5 3 3 4 6 6 5 5 7 10 12 6 7 6 6 5 3 4 4 3 4 1 4 5 8 5 9 5 8 9 5 5 5 4 7 11 10 9 7 7 7
12 12 13 14 14 15 15 16 15 14 12 9 8 9 9 7 4 5 5 3 4 4 5 3 7 6 3 3 1 2 5 7 4 5 3 3 5 6 4 3 3 3 2 4 4 4 2 1 2 2 2 1 2 3 5 2 5 8 12 10 8 7 3 3 4 1 3 3 2 4 3 3 4 6 5 5 4 1 3 1 4 10 10 9 7 6 5
12 13 13 15 14 15 15 16 16 15 13 12 8 8 8 4 4 5 5 5 4 3 5 7 8 2 5 4 1 4 2 1 1 4 5 4 3 3 3 1 1 1 5 4 3 1 1 1 2 1 2 2 2 3 2 3 1 5 6 7 7 8 8 5 3 1 5 2 3 2 1 4 3 8 7 6 4 4 1 2 4 7 9 9 8 6 6
13 13 14 14 15 16 16 16 16 15 13 10 7 7 4 4 4 4 6 5 5 6 5 6 5 3 4 4 4 3 2 1 2 1 2 4 3 2 8 2 4 5 5 3 3 2 2 3 7 0 2 2 2 1 3 1 2 5 7 7 6 11 6 5 6 5 6 4 1 3 2 2 5 9 8 7 4 2 2 3 3 7 9 8 9 8 7
13 14 14 15 15 16 16 16 16 16 14 10 7 6 6 3 4 5 4 6 3 4 6 5 4 2 4 7 4 4 1 2 1 1 3 5 5 6 7 5 7 3 4 2 2 1 2 2 3 3 3 3 1 2 0 2 4 3 5 7 3 4 3 4 5 5 2 3 6 5 3 2 6 9 9 4 3 2 1 2 3 6 7 7 7 8 7
13 14 14 15 15 16 16 16 17 16 15 12 9 7 5 3 3 4 3 6 4 3 6 6 3 5 5 2 4 1 3 7 3 1 1 2 4 7 3 4 4 2 4 0 3 1 2 2 3 3 3 3 3 3 1 2 3 4 8 5 2 5 5 3 4 3 2 1 5 6 4 1 8 10 8 6 4 1 3 2 4 5 6 7 7 8 8
14 14 15 15 16 16 16 17 17 16 15 11 6 5 3 4 2 3 4 5 6 6 5 6 3 6 7 9 5 5 2 4 5 9 2 3 3 5 4 3 3 3 2 1 1 2 3 2 3 4 5 6 5 4 6 7 8 7 2 1 3 4 4 4 4 1 2 2 5 3 3 4 11 12 2 11 2 3 4 6 7 6 7 9 9 10 9
14 15 16 16 16 17 17 17 16 15 14 11 8 5 1 2 4 3 5 4 5 3 5 6 8 9 7 7 8 8 8 7 7 6 9 3 5 3 0 2 5 5 4 2 4 2 2 0 5 3 5 3 3 1 5 5 7 9 6 4 7 8 2 1 3 5 3 6 5 4 2 4 8 8 5 6 7 5 6 5 7 7 7 8 9 10 9
15 15 16 16 17 17 17 17 16 14 14 11 10 5 1 3 3 4 6 5 5 4 6 7 8 8 7 7 5 5 7 8 8 7 6 4 1 3 3 1 7 4 2 3 0 2 2 3 2 5 5 4 3 4 4 4 7 6 9 4 5 10 8 4 8 7 5 3 3 1 2 3 7 8 10 10 10 10 10 9 9 8 8 9 10 10 9
15 16 16 17 17 18 18 19 18 16 14 14 11 4 4 4 5 4 4 7 6 5 5 6 6 7 8 8 7 7 7 6 6 6 7 6 2 4 7 5 7 5 3 2 4 4 7 2 3 5 7 7 7 8 11 8 5 4 4 6 7 5 6 4 10 11 13 10 6 5 7 10 11 11 10 11 11 11 10 11 10 9 9 8 9 9 9
16 16 17 17 17 18 18 18 19 17 18 14 9 4 5 4 5 4 5 6 2 5 4 5 4 4 6 7 7 5 5 6 6 4 1 4 5 3 5 6 5 1 4 3 5 2 3 3 5 5 6 4 3 7 5 6 7 6 5 1 2 3 1 3 7 10 4 6 4 11 12 12 12 13 13 13 12 11 10 10 10 10 10 10 10 10 10
16 17 17 17 17 18 18 17 18 16 16 18 16 9 4 3 3 2 5 3 3 1 3 3 5 5 7 7 4 5 5 3 4 5 5 6 8 7 6 4 4 4 6 4 4 1 2 3 6 5 6 5 4 7 7 9 7 6 5 3 4 9 9 13 12 12 9 7 10 12 12 12 11 10 10 12 13 13 11 10 10 11 10 11 11 10 11
17 17 17 18 18 18 18 17 17 17 17 20 12 6 2 5 4 7 4 4 4 4 4 3 5 5 5 5 7 6 4 5 5 6 6 8 7 6 4 3 2 3 2 5 4 3 4 4 4 4 6 7 7 7 6 7 9 7 7 6 5 6 5 6 8 11 11 13 12 12 13 13 12 12 12 11 11 12 12 12 12 11 10 9 9 8 8
17 18 18 18 18 18 18 17 17 17 17 14 10 6 5 3 4 6 8 5 2 3 3 4 5 6 6 8 5 5 5 5 4 5 6 6 6 5 3 1 3 3 5 6 6 4 4 5 5 8 7 6 6 9 9 9 9 6 7 9 12 11 11 11 9 9 8 7 8 7 7 7 9 10 11 11 11 12 12 12 11 10 11 9 9 8 8
17 18 18 18 18 18 17 17 16 18 17 18 10 3 3 1 1 4 6 6 6 2 5 4 5 6 3 9 7 8 7 6 5 5 5 6 6 5 5 7 6 4 2 3 4 4 4 6 8 4 4 6 8 9 10 10 9 10 9 9 6 8 8 5 6 6 7 9 11 11 11 10 9 9 9 9 9 9 9 9 10 10 10 9 10 9 9
17 18 18 18 17 17 17 16 16 15 16 13 7 3 3 3 3 5 7 5 6 0 6 5 5 4 2 5 3 8 6 6 5 5 5 6 6 6 8 7 6 6 8 7 6 5 5 6 3 5 4 3 3 8 7 8 8 9 10 11 11 10 9 12 13 13 12 11 9 9 8 9 9 9 9 9 9 9 9 9 8 8 9 8 6 7 6
17 17 18 17 18 17 17 16 15 15 15 7 6 3 4 4 2 5 7 5 6 5 3 3 4 3 1 4 6 6 8 8 8 7 7 5 5 5 6 5 6 6 7 5 4 6 5 5 4 5 4 2 3 6 6 8 8 9 10 11 11 11 11 10 9 10 10 10 11 10 10 10 8 9 9 9 9 9 9 8 7 8 8 7 6 6 5
17 18 18 17 18 17 17 16 15 17 13 4 5 3 3 3 3 3 8 7 5 6 2 3 5 3 4 3 4 7 8 8 8 7 7 6 5 6 5 5 5 5 5 4 5 5 3 5 4 4 3 10 3 6 8 7 9 9 9 10 10 11 11 11 11 12 11 10 10 9 9 8 7 9 8 7 8 8 8 8 7 6 4 6 7 6 6
17 18 18 18 17 17 16 16 14 14 6 4 5 4 4 3 3 7 8 8 7 4 4 4 4 2 3 2 2 2 6 5 6 4 5 4 7 7 9 8 7 7 5 5 4 4 5 4 5 5 6 8 4 7 8 8 8 9 9 10 10 11 10 11 10 10 10 9 10 9 7 6 6 7 7 7 9 8 8 7 5 6 2 6 5 6 5
17 18 18 18 17 17 15 14 12 7 5 5 5 2 4 4 7 7 7 6 5 2 4 3 3 3 2 6 3 3 1 4 5 3 6 2 7 4 6 6 7 7 4 4 4 4 4 4 4 6 7 4 4 6 8 7 9 10 11 10 10 10 10 9 9 8 8 6 5 7 8 8 8 8 8 7 6 6 6 7 7 5 5 5 5 4 4
17 18 18 18 18 17 14 12 13 10 6 4 1 3 4 10 7 10 9 4 4 3 3 3 3 3 4 3 4 5 4 4 6 1 3 1 5 6 4 4 2 3 2 5 4 4 4 5 6 6 5 6 4 5 7 9 10 11 11 10 9 9 8 8 7 8 8 9 7 9 9 8 7 7 6 6 6 4 4 3 3 4 5 3 3 4 4
17 18 18 18 17 16 16 11 5 4 3 2 5 2 4 10 8 7 4 4 2 1 0 3 1 5 4 3 3 3 3 7 4 3 4 3 7 4 3 3 1 2 3 3 3 4 4 5 6 5 7 6 4 5 5 11 11 10 9 10 9 8 9 9 8 7 7 6 7 7 8 7 6 6 5 4 4 3 4 2 3 5 3 3 3 2 2
18 18 18 17 18 14 7 5 4 6 4 4 3 2 4 8 8 4 4 3 4 2 2 2 3 4 3 5 4 2 4 5 7 4 4 0 4 4 3 3 4 4 4 2 4 3 5 4 3 5 5 4 4 6 9 10 10 9 8 8 7 6 7 9 7 8 7 5 8 8 8 7 6 6 4 3 2 4 4 4 3 1 3 4 4 4 4
18 18 19 16 8 3 4 1 4 5 3 3 2 6 7 6 2 4 5 4 3 2 4 1 3 3 3 6 3 2 3 3 4 4 4 3 3 1 3 2 4 1 2 3 3 3 2 5 2 4 4 5 6 9 10 10 10 10 10 8 6 7 7 6 8 7 7 6 6 6 5 5 5 4 3 3 4 2 2 3 4 4 4 5 4 4 6
18 17 7 4 4 2 1 2 3 2 4 3 3 2 2 3 3 1 0 2 2 3 1 2 2 6 5 6 5 4 3 4 5 3 2 4 3 3 1 3 3 2 5 3 5 3 4 2 4 5 4 7 9 11 9 7 9 10 7 6 9 9 5 8 10 7 5 4 4 2 2 5 3 4 3 4 2 3 3 1 1 2 1 3 5 5 5
12 5 5 4 4 1 1 4 3 3 3 4 3 1 3 1 1 1 0 0 0 1 1 3 3 3 6 6 6 2 3 2 3 4 4 1 0 3 1 3 1 1 4 2 4 4 4 3 3 4 5 3 5 7 8 9 8 6 6 4 8 7 6 3 3 5 6 6 6 5 6 6 4 4 2 1 2 2 2 2 3 3 4 4 5 7 7
4 4 2 4 1 4 4 3 1 2 4 3 2 2 2 2 3 2 1 2 3 1 1 1 5 6 4 7 6 5 2 4 2 5 3 4 3 2 2 1 2 1 4 3 4 4 4 5 4 4 5 6 7 6 6 5 6 5 5 4 5 4 0 5 7 5 5 4 6 5 2 2 2 2 3 4 3 3 2 2 2 2 2 2 1 4 5
4 5 4 2 6 4 5 5 4 4 2 1 1 1 1 1 2 2 1 3 1 3 2 3 2 4 3 6 4 5 3 3 4 5 4 3 1 2 3 3 1 2 3 3 3 3 3 4 5 5 5 6 8 8 8 7 7 6 6 6 6 5 6 5 5 5 4 6 5 2 4 3 1 1 2 2 3 2 3 3 3 2 3 3 3 4 4
4 5 5 8 4 5 6 4 3 1 1 0 1 1 2 1 0 1 2 2 3 3 4 4 5 6 4 2 5 5 3 4 0 1 2 3 0 1 3 2 1 2 3 3 4 1 3 3 4 6 6 9 10 9 9 8 7 7 7 7 6 6 5 5 4 5 6 5 4 2 2 5 4 3 2 3 3 3 3 3 3 4 4 2 3 6 5
17 12 7 3 4 3 3 2 1 0 1 1 1 1 0 1 2 3 3 0 1 4 4 6 6 6 6 3 6 4 3 2 2 2 2 3 1 1 3 2 1 2 3 3 3 2 3 3 5 8 8 9 9 9 8 9 8 8 7 6 3 4 4 5 6 6 5 4 5 3 4 3 2 4 3 4 5 6 4 3 3 4 2 4 5 5 6
8 5 3 1 2 1 1 2 0 1 1 1 2 3 3 2 4 3 2 3 3 2 6 6 6 6 4 2 2 3 2 2 1 1 3 2 1 2 1 3 2 4 2 2 2 3 3 1 7 11 11 10 9 9 9 8 8 8 6 7 5 3 3 6 2 5 6 3 2 2 1 3 1 2 4 3 2 4 4 5 5 4 5 5 5 5 5
3 2 1 1 0 2 0 2 1 1 2 2 2 3 4 4 3 4 3 4 5 7 6 4 5 4 5 3 4 3 2 3 0 0 3 2 2 2 2 2 3 2 3 3 3 3 2 3 9 11 12 10 10 9 9 8 8 6 6 7 5 6 2 4 5 2 2 1 1 1 2 3 4 4 3 4 4 4 6 6 5 5 6 6 6 6 5
3 3 3 2 3 3 1 2 2 2 2 3 4 5 6 6 5 4 7 5 5 6 4 5 7 7 6 4 2 3 2 2 3 2 3 1 3 2 3 2 2 3 2 3 4 5 4 5 9 10 9 9 10 9 8 8 8 7 6 5 5 2 2 1 1 2 2 2 1 2 4 4 4 5 4 4 4 5 5 5 5 5 5 6 6 6 5
1 1 2 1 2 2 2 2 4 3 3 5 7 3 3 1 4 7 4 5 7 6 7 6 5 5 5 2 1 3 2 2 2 2 1 3 1 2 1 1 2 2 3 3 3 4 3 8 11 11 10 10 10 9 8 7 7 7 4 5 4 3 2 2 1 2 2 1 2 3 4 4 4 4 4 4 5 5 5 4 4 5 6 7 6 6 6
2 2 2 2 2 2 5 3 7 6 4 7 4 6 5 6 6 5 2 3 6 4 6 7 6 4 3 1 4 3 4 2 3 1 1 3 1 1 2 1 2 2 2 3 2 2 4 10 10 12 9 10 10 9 7 6 5 5 4 3 3 2 2 2 2 2 2 2 3 3 4 4 4 4 5 6 6 5 5 5 6 5 5 6 6 6 6
1 2 2 2 2 3 4 4 4 5 3 1 4 4 2 5 5 5 4 5 4 4 4 4 4 4 3 3 4 6 4 3 2 2 2 2 2 2 2 3 4 3 3 3 4 4 5 10 11 11 10 10 9 7 7 6 5 4 2 1 3 2 2 2 1 1 1 2 3 4 4 5 5 4 5 6 4 4 3 4 6 5 4 6 6 6 6
1 2 2 2 3 3 6 4 6 3 4 4 3 3 4 5 6 8 4 5 4 5 4 5 1 2 3 2 2 2 3 3 2 2 3 3 2 3 3 4 3 3 3 4 3 4 7 8 10 10 10 9 8 7 7 6 4 3 4 3 2 2 2 1 1 2 3 3 3 4 3 4 5 6 5 6 5 5 7 7 5 6 6 5 5 6 6
1 2 3 5 3 2 3 4 5 4 3 5 6 5 5 6 6 5 3 4 3 1 2 3 3 2 3 1 3 3 2 2 3 4 3 3 2 3 3 4 4 3 4 3 4 8 8 7 7 8 8 8 7 6 6 6 4 4 2 3 3 2 2 2 2 2 3 3 4 3 4 5 5 5 4 4 5 6 6 6 6 5 3 5 5 6 6
2 2 3 4 8 6 6 6 2 4 5 6 5 5 4 6 5 5 4 4 4 3 3 3 2 2 1 3 2 2 2 2 2 3 4 3 2 3 3 4 6 5 5 8 6 8 8 6 7 8 8 7 7 6 6 6 5 4 3 2 2 2 3 3 3 3 3 3 3 4 4 4 4 4 6 6 6 7 7 7 4 3 3 4 5 6 6
Wind_Direction
325 330 326 323 324 327 331 336 337 339 338 328 350 324 242 229 266 294 161 160 189 205 227 202 208 229 172 28 75 100 192 272 162 246 156 203 302 6 209 272 248 284 317 351 288 312 267 260 16 78 80 47 11 7 352 338 287 24 23 264 63 339 263 239 248 266 235 260 292 269 286 297 313 29 39 357 360 9 20 336 344 295 35 314 270 105 71
330 330 325 326 327 333 335 336 338 338 346 334 314 273 261 201 157 176 165 181 214 241 205 190 215 213 143 237 352 51 284 231 144 225 153 267 172 210 225 35 275 333 80 284 267 288 66 14 100 63 30 45 57 232 222 264 29 332 356 305 34 259 324 312 281 254 335 317 298 292 276 282 83 318 9 11 356 9 359 345 28 342 294 194 106 14 172
331 327 323 328 333 337 336 339 334 333 336 322 294 276 352 354 282 194 158 187 203 193 236 296 237 166 222 197 217 173 245 28 357 319 100 165 261 116 331 315 102 225 179 241 267 310 355 305 98 127 147 146 253 139 172 58 110 67 92 26 154 244 110 72 256 248 251 245 255 297 297 313 352 15 10 28 36 27 18 8 31 7 346 334 299 104 143
329 325 327 333 334 335 336 336 331 332 345 314 224 248 280 174 196 158 158 190 188 226 247 255 265 151 186 149 213 206 145 94 256 357 49 351 6 9 328 242 74 273 310 274 266 273 184 231 203 217 135 40 111 39 76 105 118 78 91 280 289 211 125 170 252 272 181 193 272 247 240 288 273 318 18 12 36 47 56 22 267 12 322 11 28 98 151
329 332 332 335 333 331 339 335 333 343 343 346 261 248 252 198 245 162 173 175 206 241 245 227 184 158 190 178 208 210 147 232 155 250 309 117 278 217 200 312 200 209 332 350 311 286 253 173 273 280 146 138 143 20 45 109 109 135 189 239 274 257 252 205 205 231 261 229 273 239 222 257 285 286 293 311 359 34 31 41 18 347 307 213 106 85 148
331 335 331 331 333 335 337 336 335 344 346 347 290 255 204 221 229 201 172 201 169 200 220 188 202 125 209 106 248 248 132 180 109 158 254 175 251 306 173 225 25 335 214 186 274 308 299 294 242 314 10 277 159 210 216 129 141 178 1 340 335 347 292 278 278 260 250 201 179 287 244 243 255 225 269 284 5 42 57 21 342 239 336 108 20 62 124
330 329 328 330 332 337 337 340 341 338 345 313 270 270 203 320 299 59 85 297 132 220 115 143 140 183 194 129 236 218 149 162 139 198 172 245 149 238 110 271 241 194 294 81 256 214 296 340 20 40 19 4 357 64 358 6 346 24 140 56 75 230 252 304 314 297 287 267 203 194 315 301 229 19 25 18 52 63 61 68 13 38 82 78 89 103 85
329 327 329 330 333 336 341 341 343 342 328 293 253 250 307 338 288 143 171 232 107 115 136 172 158 113 113 172 119 104 139 170 161 136 69 25 327 335 308 200 276 132 270 174 244 41 11 31 6 31 17 313 261 306 115 15 30 321 14 76 90 327 56 46 322 301 291 306 254 212 276 296 30 57 40 31 50 70 53 44 22 9 53 73 77 100 80
327 327 328 331 333 337 344 343 344 340 336 278 227 268 219 262 224 275 230 150 113 146 171 156 140 125 202 230 109 206 141 151 133 218 100 161 206 206 182 243 296 346 281 59 50 315 175 172 190 243 259 286 31 320 80 184 196 271 329 298 96 270 319 321 317 315 288 11 345 57 16 21 69 44 32 31 25 41 46 49 26 23 1 5 143 100 88
331 329 330 332 336 340 344 346 345 342 323 287 295 272 283 283 257 252 273 151 179 225 148 141 183 143 33 52 152 207 122 139 101 40 341 337 8 33 18 14 336 104 262 114 92 47 50 322 354 357 303 265 264 252 283 305 323 30 286 61 301 20 340 351 358 298 324 40 337 6 60 125 101 32 20 15 38 33 73 51 39 32 359 27 31 65 64
333 334 333 336 339 341 344 345 344 347 340 336 337 309 343 344 324 299 285 152 179 238 139 166 127 71 121 127 121 250 140 304 102 147 137 256 161 348 3 326 293 275 57 34 9 352 332 316 271 272 276 275 263 264 258 251 242 250 280 265 147 172 187 85 84 340 9 32 21 301 210 229 59 24 22 20 51 31 55 45 33 29 25 22 38 60 60
336 334 336 337 340 341 342 343 343 346 342 312 304 289 286 323 314 294 270 241 141 275 121 60 76 136 129 123 140 72 94 198 190 13 354 199 72 46 159 181 148 336 44 346 356 326 288 260 249 250 259 262 271 263 262 279 285 265 265 267 266 239 124 314 282 257 306 105 82 23 238 86 103 51 21 12 58 81 79 64 39 28 21 25 49 53 61
337 336 337 339 338 340 340 340 341 339 340 323 301 284 302 308 294 296 298 282 112 154 158 148 114 124 116 102 94 104 40 32 46 56 320 0 112 139 275 353 82 68 335 326 297 261 253 256 259 256 257 257 237 229 236 233 267 237 326 322 346 312 182 253 209 235 197 209 174 247 67 114 125 66 33 8 41 32 117 62 36 28 24 17 33 58 61
338 336 337 336 337 338 338 338 338 336 334 326 295 283 296 298 312 307 329 337 70 71 78 100 127 99 104 133 90 135 138 166 69 69 287 335 293 232 123 277 36 340 321 245 245 249 248 223 231 220 220 224 225 225 18 25 19 16 10 340 335 328 313 272 274 247 244 238 35 72 132 116 27 31 20 18 19 10 31 68 47 25 19 13 16 49 62
337 335 337 337 336 337 335 335 336 333 328 315 295 281 273 281 313 315 320 296 285 119 7 37 123 120 78 87 157 197 183 164 179 173 176 147 258 331 25 66 48 355 10 283 263 199 232 257 248 226 241 221 340 355 348 355 0 14 5 348 314 331 313 358 293 256 266 225 141 136 184 183 74 17 10 7 1 322 317 195 99 19 20 19 16 43 41
339 339 339 337 335 335 334 333 334 332 329 323 288 269 270 335 324 275 278 302 274 138 89 34 30 104 169 134 90 280 1 127 226 155 159 169 215 197 173 353 43 344 284 265 274 282 267 284 253 8 56 88 216 265 292 340 270 34 3 316 285 273 235 225 233 204 265 225 180 148 53 72 17 352 348 352 335 322 132 217 75 10 10 15 22 46 53
340 339 337 335 336 334 333 331 331 332 328 333 312 299 297 46 332 342 323 310 37 76 68 67 42 354 318 120 171 200 218 325 275 237 179 162 165 147 116 118 106 219 241 305 315 33 3 51 63 39 64 58 222 338 270 284 318 350 353 338 35 30 309 237 225 239 226 233 90 101 67 69 354 328 332 335 336 261 199 230 85 2 16 25 32 36 34
339 338 337 337 335 333 332 331 330 329 331 329 308 297 309 32 17 325 308 283 124 76 53 21 4 328 24 31 40 52 2 194 165 250 313 123 170 180 133 180 181 160 285 260 356 92 111 54 56 65 83 37 44 266 326 12 23 341 349 339 339 31 344 290 257 236 3 18 96 110 99 108 347 326 314 336 59 246 292 24 9 2 26 30 44 48 45
339 339 339 337 335 334 332 331 331 331 334 338 323 276 238 359 359 328 324 293 92 74 41 64 38 21 353 73 38 290 357 335 331 221 122 191 54 32 351 47 352 147 216 150 75 37 50 81 152 136 110 81 51 50 62 51 12 8 20 9 351 27 347 352 10 344 100 103 102 95 76 53 331 329 306 343 271 85 66 65 38 26 46 53 62 70 70
343 341 341 339 336 334 334 333 332 333 334 338 329 307 7 10 357 313 338 3 76 86 102 79 13 85 34 29 39 25 107 209 4 334 10 70 106 181 197 138 194 284 203 94 169 127 102 165 122 126 81 82 60 48 79 77 50 41 48 21 8 21 326 51 17 356 104 116 112 117 80 40 353 312 309 9 33 75 106 98 64 61 71 77 76 84 84
347 345 342 341 338 336 335 333 334 333 332 331 326 304 47 38 315 293 235 275 101 103 85 57 56 54 52 53 34 30 31 25 18 360 344 37 33 330 55 48 65 53 357 38 47 357 112 32 84 80 91 84 130 228 105 104 82 38 29 50 46 351 293 57 73 343 57 50 58 57 31 297 338 27 72 53 68 92 103 106 81 73 82 90 93 88 88
348 346 343 343 339 337 335 333 335 330 325 316 308 268 169 44 353 10 31 29 81 71 67 62 63 71 61 79 82 40 32 20 36 5 354 349 172 1 123 336 53 79 44 18 153 91 7 308 60 92 99 121 165 60 65 80 54 47 44 8 73 20 57 31 80 28 54 59 89 144 191 73 50 67 84 82 80 80 78 85 92 95 95 103 101 99 92
350 348 346 343 341 340 338 336 336 335 330 336 347 283 118 153 93 41 75 88 95 113 132 120 122 109 111 87 63 51 62 45 46 38 13 351 326 66 31 40 58 32 70 65 98 146 246 205 78 85 88 79 79 87 72 66 82 52 61 9 100 101 81 90 75 84 93 89 102 127 95 84 85 78 80 83 84 81 86 92 96 94 101 106 107 106 93
350 349 347 344 342 341 340 338 337 336 338 329 334 270 122 104 121 141 122 130 134 113 80 61 78 57 53 66 56 58 69 71 41 51 255 311 351 91 86 36 349 140 75 44 170 221 112 61 43 71 77 46 101 98 99 87 82 121 111 38 21 52 80 102 107 157 141 77 121 100 102 100 92 86 82 83 81 83 86 89 91 99 102 104 104 101 99
350 350 347 345 343 341 341 340 338 333 335 344 343 343 81 103 48 7 134 139 160 112 98 80 54 51 62 39 76 77 46 70 83 45 43 40 31 38 58 20 342 14 56 25 316 69 64 90 88 78 80 40 344 86 93 116 121 137 95 110 149 97 87 80 80 84 85 116 112 102 101 100 99 97 95 90 88 86 84 87 90 96 102 102 105 105 103
351 348 347 344 343 341 341 340 339 338 342 339 337 283 201 75 29 321 218 84 69 123 126 105 89 38 45 87 63 53 31 42 59 68 64 70 52 29 71 133 115 255 318 7 11 67 88 84 73 79 79 67 43 90 91 88 102 108 102 115 103 105 142 84 105 98 104 108 100 95 91 85 84 89 98 107 112 116 117 115 110 110 110 110 106 109 108
348 347 345 345 342 343 340 340 339 341 338 334 335 326 104 113 40 12 16 348 146 103 107 105 116 114 102 74 58 71 58 72 46 72 59 45 55 39 29 52 118 53 40 65 40 52 59 63 62 74 66 76 78 78 84 79 66 66 66 93 116 108 102 120 123 117 115 115 120 129 106 95 88 85 90 101 111 116 114 116 113 112 113 117 120 114 116
345 344 343 343 342 341 340 338 339 340 342 336 320 8 49 56 61 21 13 27 343 88 120 121 108 97 120 68 50 51 44 38 52 80 83 73 48 30 39 39 24 58 97 140 114 94 89 90 81 70 72 76 93 98 92 82 74 65 59 51 53 88 111 136 109 110 109 104 93 88 95 95 100 107 101 95 92 99 103 101 112 117 115 119 123 134 133
342 341 342 341 341 340 338 336 337 338 339 332 308 288 104 39 32 37 29 5 326 8 97 93 132 162 65 52 16 78 53 81 78 60 64 70 69 58 50 46 51 65 66 57 64 64 64 57 48 66 61 6 9 89 89 83 76 75 67 64 66 73 82 82 91 101 104 106 109 109 105 103 97 90 96 104 109 103 98 100 99 104 120 133 125 112 115
338 339 341 340 339 337 336 334 335 335 334 313 316 232 129 123 23 22 22 349 341 331 139 137 100 78 73 56 68 70 83 65 64 70 76 72 62 63 63 76 74 52 59 65 79 87 80 87 75 77 54 290 111 94 102 100 89 76 70 76 77 77 80 92 97 96 99 100 102 103 99 92 84 73 57 58 67 77 85 84 96 121 121 116 107 102 107
336 336 338 339 335 334 331 333 335 333 326 307 300 223 160 150 116 23 3 339 332 307 111 96 90 104 88 2 19 81 78 64 63 68 70 74 79 91 104 109 100 100 100 96 94 95 115 95 98 78 81 351 357 107 101 100 96 92 86 89 89 91 90 88 89 94 103 103 101 99 102 102 106 102 98 109 106 94 100 103 83 49 353 85 97 108 116
334 333 335 335 332 329 328 330 337 330 308 347 6 1 2 21 15 321 315 318 334 296 111 120 144 134 89 91 33 25 94 112 119 115 86 61 68 43 46 46 69 63 62 87 80 87 65 74 72 67 68 354 27 97 102 97 102 107 107 90 87 95 99 98 100 105 109 115 115 106 101 104 94 93 100 86 93 106 102 102 107 111 147 78 78 70 68
330 331 330 330 327 323 323 326 329 344 355 345 331 305 153 338 293 275 343 339 302 203 145 142 95 141 142 107 144 90 143 176 124 140 91 76 92 95 96 90 91 87 80 81 79 86 85 87 86 78 56 37 90 103 106 108 110 113 106 107 105 100 98 99 108 121 115 110 122 121 118 111 110 115 116 117 101 82 69 70 73 91 103 102 79 78 84
326 327 326 323 320 319 317 317 308 298 274 262 188 91 42 8 350 8 345 320 288 60 272 110 149 114 105 210 171 128 232 247 113 162 98 32 132 130 111 109 58 86 50 93 115 113 91 85 86 84 82 66 71 101 103 116 126 120 122 122 123 120 122 125 120 105 106 102 80 69 76 85 93 96 95 79 70 72 120 125 103 83 66 52 70 41 47
322 322 322 318 314 313 309 301 301 254 251 159 81 53 0 345 331 290 300 349 319 165 118 121 120 121 160 203 143 115 319 295 112 110 120 149 254 136 136 116 203 117 97 147 123 101 117 104 114 105 93 105 94 88 107 119 116 114 112 115 119 127 135 110 93 92 98 95 86 94 116 129 124 101 96 126 140 124 83 93 73 8 40 58 27 26 348
318 317 316 313 306 297 284 237 232 260 178 92 92 58 355 304 312 308 318 268 291 316 169 147 187 147 179 146 134 138 262 111 89 125 88 151 116 99 127 115 110 92 199 194 107 153 100 152 152 110 164 129 108 122 123 122 125 128 122 114 128 121 101 109 120 111 101 105 122 135 139 133 115 116 121 102 60 59 64 12 44 40 36 23 32 329 333
314 316 309 294 281 219 245 215 98 17 30 35 344 330 299 291 220 273 244 267 190 181 292 242 243 87 73 88 104 129 255 128 203 118 180 174 110 123 125 163 107 139 110 100 122 110 123 263 105 108 84 96 110 114 128 133 140 143 147 133 106 117 130 111 98 110 125 138 162 160 140 123 126 121 117 86 68 58 358 28 52 26 18 20 25 355 355
315 308 287 227 207 226 178 112 54 37 352 331 320 149 181 233 170 156 235 260 50 331 244 265 100 118 145 143 127 127 249 128 215 135 96 104 150 133 149 119 112 217 125 120 82 68 95 104 114 112 106 98 120 127 124 111 75 74 101 170 160 130 124 135 148 145 117 125 95 63 36 73 62 69 9 84 46 60 50 356 21 58 11 340 14 5 331
292 257 237 249 234 151 86 101 59 357 303 162 246 244 149 244 154 154 160 22 166 214 353 304 126 164 120 108 123 138 324 151 164 121 161 100 288 120 241 134 141 233 111 150 120 275 117 96 108 118 110 94 72 70 87 110 136 144 127 65 48 92 139 203 58 68 54 54 72 58 36 29 40 59 60 13 49 83 83 325 325 43 25 20 9 343 340
229 240 239 223 142 88 106 108 29 188 216 196 218 238 157 262 201 149 209 205 215 118 268 130 67 30 21 129 152 136 44 329 170 175 143 129 319 163 167 154 126 173 145 191 130 233 146 149 142 145 142 168 130 136 118 111 91 107 115 112 115 127 174 75 77 52 81 61 40 66 104 152 104 5 2 348 355 345 1 345 3 341 26 37 31 301 309
229 254 249 80 104 128 116 147 179 226 211 222 105 281 131 201 299 85 178 225 189 115 302 83 183 155 126 121 161 138 131 285 329 84 131 131 94 288 156 137 130 186 159 136 133 227 158 135 167 159 153 137 140 156 139 141 128 125 115 118 110 104 108 111 122 155 174 157 159 114 89 56 337 331 338 354 330 339 335 331 316 1 354 347 325 308 307
339 305 322 305 70 106 144 171 209 181 344 98 161 162 185 165 103 222 217 208 161 146 178 184 164 155 101 23 109 111 106 313 302 93 113 123 291 275 109 107 197 191 154 111 169 188 147 168 175 123 128 140 144 145 145 137 135 126 120 116 110 109 118 123 108 31 34 19 58 152 28 37 15 326 322 322 306 310 315 299 314 337 339 2 5 310 305
296 267 242 229 142 163 189 173 178 223 137 358 190 121 183 205 209 200 169 311 85 190 94 23 64 76 100 123 81 1 75 356 308 144 159 114 177 236 136 136 201 163 105 153 201 170 168 200 149 134 144 139 155 154 145 150 154 139 133 135 172 124 115 89 73 59 44 59 58 359 39 310 359 334 3 351 330 298 296 297 309 299 320 326 307 302 305
257 238 199 177 170 135 210 140 166 42 339 171 151 170 206 216 192 210 215 160 163 169 142 183 157 208 141 255 125 132 153 160 292 65 95 140 181 103 146 175 147 79 111 202 191 161 196 234 125 137 139 146 166 156 152 144 134 133 148 128 123 143 115 96 139 157 151 149 141 103 294 276 344 297 320 306 302 310 331 319 327 340 326 295 296 308 298
179 204 196 141 201 148 125 39 277 202 206 197 213 197 178 204 179 201 179 121 222 127 169 170 152 179 123 111 98 122 221 139 67 230 122 175 127 154 193 135 106 175 196 161 184 155 153 139 124 128 139 162 157 147 140 142 151 149 144 136 147 133 161 176 137 197 136 182 65 6 303 316 307 314 305 311 305 322 326 325 333 335 316 306 296 290 291
192 169 144 113 1 294 213 167 169 217 215 187 217 218 199 188 192 153 103 173 125 125 163 140 185 135 127 173 223 137 202 146 167 132 157 162 144 138 54 83 190 170 182 168 217 156 177 149 131 140 159 153 139 143 152 161 150 140 154 161 134 126 96 8 21 352 318 308 352 315 327 328 310 297 303 317 322 318 305 310 328 322 307 291 285 289 297
173 170 179 160 183 204 245 199 200 216 197 196 225 188 353 87 101 95 156 161 139 166 162 164 118 115 135 173 148 130 158 130 121 124 207 127 126 94 282 165 187 168 186 171 198 146 190 143 137 135 147 144 148 150 169 165 158 147 158 139 146 160 141 197 293 278 310 346 308 301 277 285 301 311 297 294 291 300 302 308 297 286 281 281 288 286 293
182 220 223 176 203 193 211 217 225 214 221 203 181 95 100 90 91 105 85 116 114 144 149 122 114 140 148 61 275 148 114 121 129 133 3 110 136 147 129 160 170 175 183 179 168 161 168 120 132 135 151 146 154 159 161 153 156 161 167 146 143 169 172 199 231 279 313 323 308 292 299 298 298 316 320 324 326 308 312 335 340 327 305 297 289 290 285
298 190 203 206 219 194 231 221 211 180 216 87 157 95 127 171 121 129 110 91 133 148 188 176 136 205 153 215 134 98 119 136 158 137 150 146 130 146 164 162 187 172 182 196 191 201 155 131 128 139 147 151 155 161 153 162 150 153 187 194 127 158 192 244 283 320 5 291 268 278 300 331 326 306 287 274 278 310 346 313 295 283 279 283 291 286 287
232 204 295 244 217 215 219 204 227 174 160 194 201 161 177 134 142 101 111 158 139 155 164 70 101 256 121 280 75 119 132 187 142 153 183 155 157 174 185 160 171 191 172 196 204 131 119 130 132 140 144 150 157 165 154 144 125 190 163 152 162 222 241 287 294 266 239 260 303 329 345 329 287 284 318 338 342 331 310 297 299 308 305 293 286 289 287
286 291 234 253 239 195 181 200 209 166 166 177 197 166 142 147 144 137 214 133 188 99 107 163 195 161 136 147 126 169 157 102 144 175 175 169 179 174 164 178 190 191 180 129 94 101 110 124 143 138 144 151 157 146 147 132 149 215 175 188 205 207 240 207 225 239 253 244 232 212 243 257 284 313 297 280 309 306 292 287 270 273 329 332 313 301 299
214 214 234 218 261 233 181 236 182 154 178 184 160 123 138 137 162 148 166 160 154 182 173 114 130 120 133 161 182 105 113 203 165 161 171 156 194 160 179 196 195 194 138 106 111 101 111 129 143 137 155 145 142 145 158 159 181 194 204 173 200 232 235 218 220 232 254 262 271 273 280 291 304 328 350 320 283 265 264 268 289 26 354 320 314 307 305